Location: �bnet
(46.9957°N, 8.4908°E)
Time: 14:49:07
(UTC+00:00)

BREEZE M DEB (TANK) - Pass Details

Date: 11 May 2021
Orbit: 273 x 14491 km, 49.6° (Epoch: 16 June)

Event Time Altitude Azimuth Distance (km) Brightness Sun altitude
Rises 19:39:04 0° 276° (W) 5,826 8.6 -7.9°
Reaches altitude 10° 19:44:36 10° 279° (W) 3,325 7.3 -8.6°
Maximum altitude 19:50:51 60° 359° (N) 609 2.8 -9.4°
Drops below altitude 10° 19:53:18 10° 83° (E) 1,326 3.9 -9.8°
Enters shadow 19:53:32 - 84° (E) 1,442 4.1 -9.8°
